User: anonymous   Login
Location: Aytr�
(46.1357°N, 1.1145°W)
Time: 01:48:09
(UTC+00:00)
Language:

Resurs 1-3 - Orbit

View from above orbital plane
View from above orbital plane
View from above satellite
View from above satellite

Ground track
Ground track

The orbit data is extracted from the following two-line orbital elements,

1 23342U 94074A   21136.12681187  .00000138  00000-0  25394-4 0  9994
2 23342  97.8801 185.6103 0001986  69.0737 291.0687 14.79417068428777
Epoch (UTC): 16 May 2021 03:02:36
Eccentricity: 0.0001986
inclination: 97.8801°
perigee height: 630 km
apogee height: 632 km
right ascension of ascending node: 185.6103°
argument of perigee: 69.0737°
revolutions per day: 14.79417068
mean anomaly at epoch: 291.0687°
orbit number at epoch: 42877

The dashed part of the orbit path shows where the satellite is in the earth's shadow,  

DLR